Back to catalog

STARLINK-2637

AliveCommunicationsVLEO
NORAD 48356·PAYLOAD·🇺🇸 United States

Launched May 4, 2021 from Cape Canaveral Space Force Station

Loading…

Next Passes (next 24 hours)

TLE

FreshSource: CelesTrak SupGP

Epoch: Sep 14, 2026, 20:59 UTC

1 48356C 21038D   26257.87479167  .00009229  00000+0  29683-3 0  2570
2 48356  53.1575 197.9805 0001233  99.3403  15.2303 15.31693312    19

Track STARLINK-2637 in real time with AllMySat

Download on the App Store